[[{"header":{"parameterUnit":"m.s-1","parameterCategory":1,"la1":30.2991,"la2":30.254,"lo1":-89.0895,"lo2":-89.0444,"dy":0.0017,"dx":0.0017,"nx":28,"ny":28,"refTime":"2024-04-30T03:00:00:Z","depth":0,"parameterNumber":2,"parameterNumberName":"U-component_of_WINDS"},"data":[0,0,0,0,0,0,0,0,0,0,0,0,0,0,0,0,0,0,0,0,0,0,0,0,0,0,0,0,0,0,0,0,0,0,0,0,0,0,0,0,0,0,0,0,0,0,0,0,0,0,0,0,0,0,0,0,0,0,-5.7216,-5.7215,0,-5.7181,-5.7181,-5.7181,-5.7143,-5.7143,-5.7142,-5.7142,-5.7104,-5.7104,-5.7103,0,0,0,0,0,0,0,0,0,0,0,0,0,-5.7245,-5.7245,-5.7216,-5.7215,-5.7215,-5.7182,-5.7181,-5.7181,-5.7144,-5.7143,-5.7142,-5.7142,-5.7104,-5.7104,-5.7103,0,0,0,0,0,0,0,0,0,0,0,0,0,-5.7224,-5.7244,-5.7216,-5.7193,-5.719,-5.7182,-5.7181,-5.718,-5.7144,-5.7143,-5.7142,-5.7141,-5.7105,-5.7104,-5.7103,-5.7114,0,0,-5.7101,-5.71,0,0,0,0,0,0,0,0,-5.7225,-5.7223,-5.7196,-5.7194,-5.7191,-5.7166,-5.7177,-5.7158,-5.7144,-5.7161,-5.7142,-5.7141,-5.7125,-5.7123,-5.7118,-5.7112,-5.7111,-5.7101,-5.71,-5.71,-5.71,0,0,0,0,0,0,0,-5.7226,-5.7224,-5.7202,-5.7196,-5.7193,-5.7182,-5.7178,-5.7174,-5.7148,-5.716,-5.7157,-5.7153,-5.7124,-5.7119,-5.7117,-5.711,-5.7101,-5.71,-5.71,-5.7099,-5.7108,-5.7108,0,0,0,0,0,0,-5.7232,-5.7225,-5.7203,-5.7201,-5.7207,-5.7182,-5.7178,-5.7175,-5.7148,-5.7143,-5.7154,-5.7152,-5.712,-5.7118,-5.7115,-5.7124,-5.71,-5.7099,-5.7099,-5.7107,-5.7108,-5.7108,0,0,0,0,0,0,-5.7233,-5.723,-5.7205,-5.7212,-5.7208,-5.7183,-5.7179,-5.7175,-5.717,-5.7144,-5.7139,-5.7154,-5.712,-5.7116,-5.7114,-5.7122,-5.7099,-5.7098,-5.7106,-5.7107,-5.7108,-5.7142,0,0,0,0,0,0,-5.7234,-5.7231,-5.7236,-5.7213,-5.7208,-5.7205,-5.718,-5.7175,-5.7169,-5.7165,-5.7142,-5.7138,-5.7119,-5.7115,-5.7113,-5.712,-5.7097,-5.7105,-5.7107,-5.7108,-5.714,-5.7144,-5.7148,0,0,0,0,0,-5.7235,-5.7247,-5.7236,-5.7234,-5.7214,-5.7206,-5.7203,-5.7182,-5.717,-5.7173,-5.7156,-5.7139,-5.7122,-5.7115,-5.7113,-5.712,-5.7105,-5.7106,-5.7108,-5.7139,-5.7144,-5.7148,0,0,0,0,0,0,-5.7271,-5.7244,-5.7232,-5.7237,-5.7224,-5.72,-5.7204,-5.7188,-5.7178,-5.7175,-5.7148,-5.7143,-5.7143,-5.7131,-5.7125,-5.7127,-5.711,-5.7111,-5.7135,-5.7139,-5.7143,-5.7145,-5.7097,0,0,0,0,0,-5.728,-5.7277,-5.7253,-5.726,-5.7254,-5.723,-5.7226,-5.721,-5.7196,-5.719,-5.7173,-5.7158,-5.7149,-5.7144,-5.7134,-5.7139,-5.7131,-5.7142,-5.7146,-5.7149,-5.715,-5.7148,-5.7151,-5.7114,-5.7114,-5.7114,0,0,-5.7298,-5.7283,-5.7282,-5.7267,-5.7255,-5.725,-5.7226,-5.7223,-5.7219,-5.7189,-5.7185,-5.7172,-5.7154,-5.7154,-5.7153,-5.7144,-5.7158,-5.7151,-5.7154,-5.7153,-5.715,-5.7153,-5.7156,-5.7115,-5.7114,-5.7114,0,0,-5.7328,-5.7317,-5.7321,-5.7309,-5.7291,-5.7275,-5.7276,-5.7254,-5.7244,-5.724,-5.7216,-5.721,-5.7196,-5.7183,-5.7175,-5.7197,-5.7179,-5.7195,-5.7214,-5.7212,-5.7215,-5.7218,-5.7223,-5.7226,-5.7196,-5.7196,-5.7196,0,-5.7352,-5.7346,-5.7324,-5.7322,-5.7314,-5.7288,-5.7289,-5.7279,-5.7259,-5.7253,-5.7244,-5.7223,-5.7209,-5.7205,-5.721,-5.7205,-5.7203,-5.7197,-5.7217,-5.7219,-5.7221,-5.7226,-5.7228,-5.7198,-5.7197,-5.7197,-5.7197,0,-5.7375,-5.7371,-5.7375,-5.7356,-5.735,-5.735,-5.7326,-5.7321,-5.7306,-5.729,-5.7284,-5.7266,-5.7251,-5.7249,-5.7235,-5.7241,-5.7236,-5.7222,-5.7204,-5.7227,-5.723,-5.7232,-5.72,-5.72,-5.7199,-5.7199,0,0,-5.7427,-5.7395,-5.7397,-5.7387,-5.7365,-5.736,-5.7358,-5.7343,-5.7339,-5.7325,-5.7321,-5.7308,-5.7294,-5.7285,-5.7268,-5.7267,-5.7282,-5.7252,-5.7251,-5.7257,-5.7285,-5.7295,-5.7297,-5.7271,-5.7271,-5.7271,-5.7286,0,-5.7451,-5.7446,-5.7425,-5.7425,-5.7419,-5.7393,-5.739,-5.7375,-5.736,-5.7351,-5.7334,-5.7325,-5.7309,-5.7302,-5.73,-5.7281,-5.7287,-5.728,-5.7264,-5.7263,-5.7268,-5.73,-5.731,-5.7325,-5.7288,-5.7288,-5.7288,0,-5.7479,-5.7467,-5.7467,-5.7442,-5.7439,-5.7437,-5.7421,-5.7414,-5.7395,-5.7384,-5.7372,-5.7353,-5.7346,-5.7331,-5.732,-5.7315,-5.7307,-5.7296,-5.7296,-5.7293,-5.7276,-5.7295,-5.733,-5.7331,-5.7291,-5.729,-5.729,0,-5.7513,-5.7497,-5.7494,-5.7487,-5.7459,-5.7458,-5.7446,-5.7427,-5.7419,-5.7404,-5.7398,-5.7383,-5.7374,-5.7362,-5.7338,-5.733,-5.7329,-5.7312,-5.7317,-5.7317,-5.7317,-5.7317,-5.7349,-5.7315,-5.7315,-5.7315,-5.7315,0,-5.7541,-5.7541,-5.7509,-5.7507,-5.7506,-5.7481,-5.748,-5.7465,-5.7448,-5.7441,-5.7418,-5.7411,-5.7381,-5.7371,-5.7352,-5.7344,-5.7341,-5.733,-5.7324,-5.7331,-5.7332,-5.7324,-5.7322,-5.7316,-5.7315,-5.7315,-5.7315,0,-5.7579,-5.7558,-5.7552,-5.7527,-5.752,-5.752,-5.7496,-5.7492,-5.7475,-5.7467,-5.7463,-5.7436,-5.7422,-5.7398,-5.7377,-5.7364,-5.7359,-5.7351,-5.7366,-5.7362,-5.7368,-5.7367,-5.7394,-5.7396,-5.7363,-5.7363,-5.7363,0,-5.7597,-5.7596,-5.757,-5.7564,-5.7554,-5.7545,-5.7536,-5.7511,-5.7503,-5.7481,-5.7478,-5.7463,-5.7449,-5.7428,-5.7405,-5.7388,-5.7379,-5.7389,-5.7376,-5.7381,-5.7376,-5.7376,-5.7374,-5.7392,-5.7393,-5.7393,-5.7393,0,-5.763,-5.762,-5.7609,-5.7594,-5.7585,-5.7572,-5.7558,-5.7554,-5.7525,-5.7517,-5.7503,-5.7492,-5.747,-5.7454,-5.7434,-5.7419,-5.74,-5.7398,-5.7398,-5.7404,-5.7411,-5.7405,-5.7372,-5.7397,-5.7397,-5.7396,-5.7396,-5.7396,-5.7657,-5.7654,-5.7635,-5.7623,-5.761,-5.7597,-5.7591,-5.7573,-5.7562,-5.7543,-5.7528,-5.7515,-5.7493,-5.7464,-5.7451,-5.7438,-5.743,-5.743,-5.743,-5.743,-5.7432,-5.7414,-5.7435,-5.7434,-5.7434,-5.7434,-5.7434,0,-5.7687,-5.7673,-5.7663,-5.7644,-5.7634,-5.7619,-5.7601,-5.7593,-5.7582,-5.7565,-5.7552,-5.7534,-5.7518,-5.7494,-5.7475,-5.7469,-5.746,-5.7465,-5.7464,-5.7461,-5.7441,-5.7442,-5.7473,-5.7473,-5.7473,-5.7473,-5.7473,-5.7473,-5.7701,-5.7695,-5.7682,-5.7669,-5.7654,-5.7642,-5.7633,-5.7619,-5.7605,-5.7587,-5.7574,-5.7559,-5.7537,-5.7517,-5.75,-5.7493,-5.7486,-5.7494,-5.7484,-5.7466,-5.7462,-5.7459,-5.746,-5.7493,-5.7493,-5.7504,-5.7504,-5.7504]},{"header":{"parameterUnit":"m.s-1","parameterCategory":1,"la1":30.2991,"la2":30.254,"lo1":-89.0895,"lo2":-89.0444,"dy":0.0017,"dx":0.0017,"nx":28,"ny":28,"refTime":"2024-04-30T03:00:00:Z","depth":0,"parameterNumber":3,"parameterNumberName":"V-component_of_WINDS"},"data":[0,0,0,0,0,0,0,0,0,0,0,0,0,0,0,0,0,0,0,0,0,0,0,0,0,0,0,0,0,0,0,0,0,0,0,0,0,0,0,0,0,0,0,0,0,0,0,0,0,0,0,0,0,0,0,0,0,0,4.3076,4.3076,0,4.31,4.31,4.3101,4.3057,4.3055,4.3054,4.3052,4.3079,4.3081,4.3083,0,0,0,0,0,0,0,0,0,0,0,0,0,4.2995,4.2997,4.3076,4.3076,4.3076,4.31,4.31,4.3101,4.3057,4.3055,4.3053,4.3052,4.3079,4.3081,4.3084,0,0,0,0,0,0,0,0,0,0,0,0,0,4.3026,4.2998,4.3076,4.3057,4.3056,4.31,4.31,4.3101,4.3057,4.3055,4.3053,4.3051,4.3078,4.3081,4.3084,4.3147,0,0,4.3094,4.3095,0,0,0,0,0,0,0,0,4.3024,4.3029,4.306,4.3059,4.3057,4.3073,4.3082,4.3116,4.3058,4.3057,4.3052,4.305,4.3079,4.3082,4.3091,4.3149,4.315,4.3094,4.3096,4.3097,4.3098,0,0,0,0,0,0,0,4.3022,4.3028,4.3085,4.306,4.3059,4.3049,4.3051,4.3088,4.308,4.3057,4.3054,4.3057,4.3078,4.3089,4.3092,4.315,4.3094,4.3096,4.3098,4.31,4.3264,4.3266,0,0,0,0,0,0,4.3022,4.3026,4.3084,4.3086,4.3035,4.3052,4.3055,4.307,4.308,4.3079,4.3059,4.3055,4.3084,4.3088,4.3093,4.3169,4.3097,4.31,4.3102,4.3261,4.3264,4.3267,0,0,0,0,0,0,4.3021,4.3028,4.3083,4.3055,4.3062,4.3056,4.3074,4.3072,4.3082,4.3081,4.308,4.3071,4.3083,4.3088,4.3135,4.3169,4.3101,4.3104,4.3258,4.3262,4.3266,4.3321,0,0,0,0,0,0,4.3018,4.3027,4.305,4.3056,4.3063,4.3124,4.3076,4.3074,4.3088,4.3083,4.3092,4.3092,4.3081,4.313,4.3138,4.3172,4.3107,4.3255,4.326,4.3264,4.3316,4.3326,4.3335,0,0,0,0,0,4.3016,4.3065,4.3052,4.3059,4.3092,4.3126,4.313,4.3117,4.309,4.3114,4.3114,4.3091,4.3164,4.3135,4.3143,4.3179,4.3253,4.3259,4.3264,4.3312,4.3324,4.3335,0,0,0,0,0,0,4.3063,4.3065,4.305,4.3103,4.3115,4.3118,4.3148,4.313,4.315,4.3145,4.3128,4.3131,4.3181,4.3185,4.3152,4.3243,4.3204,4.3212,4.3238,4.325,4.3259,4.3257,4.3109,0,0,0,0,0,4.308,4.3106,4.3107,4.3153,4.316,4.3153,4.3167,4.3157,4.3168,4.3173,4.3176,4.3189,4.3216,4.3233,4.3257,4.3317,4.3319,4.3346,4.3355,4.3363,4.337,4.3404,4.3416,4.3285,4.3285,4.3285,0,0,4.3114,4.3118,4.3136,4.3163,4.3171,4.32,4.3157,4.319,4.3212,4.3178,4.3222,4.3226,4.3239,4.3294,4.3317,4.3298,4.3407,4.337,4.3376,4.3379,4.3411,4.3423,4.3434,4.3289,4.3288,4.3288,0,0,4.3191,4.3197,4.3237,4.3246,4.3258,4.3254,4.3264,4.3271,4.3272,4.3316,4.3292,4.3319,4.3364,4.3375,4.3387,4.3473,4.3453,4.3481,4.353,4.3563,4.3573,4.3582,4.3614,4.3625,4.3488,4.3488,4.3488,0,4.3232,4.3274,4.3259,4.3294,4.3307,4.3279,4.332,4.333,4.335,4.3361,4.3339,4.3397,4.3404,4.3461,4.3482,4.3492,4.3504,4.3479,4.3573,4.3582,4.359,4.362,4.3632,4.3491,4.3491,4.349,4.349,0,4.3325,4.3355,4.3386,4.3406,4.3423,4.346,4.3453,4.3472,4.3461,4.346,4.3507,4.3515,4.3541,4.3554,4.3543,4.3611,4.3598,4.3575,4.3536,4.3606,4.3634,4.3645,4.3496,4.3495,4.3494,4.3493,0,0,4.343,4.3444,4.3455,4.3465,4.3478,4.3502,4.354,4.3565,4.3582,4.3598,4.363,4.3671,4.365,4.3663,4.3654,4.3684,4.3752,4.3657,4.3657,4.3675,4.3829,4.3846,4.386,4.374,4.3742,4.3744,4.3828,0,4.3508,4.3571,4.3561,4.3623,4.3651,4.3627,4.366,4.3673,4.3673,4.3699,4.37,4.3729,4.3699,4.3707,4.3736,4.3738,4.3783,4.3732,4.3771,4.3772,4.3767,4.3874,4.3892,4.3971,4.3839,4.3841,4.3842,0,4.3606,4.3625,4.369,4.3701,4.3713,4.3742,4.3766,4.379,4.3806,4.3804,4.3821,4.3807,4.3847,4.3808,4.3864,4.3829,4.3845,4.3849,4.3852,4.3854,4.3811,4.388,4.3995,4.4007,4.3859,4.3858,4.3856,0,4.3677,4.372,4.3765,4.3774,4.3787,4.3809,4.3816,4.3829,4.3846,4.3867,4.3878,4.3904,4.3918,4.394,4.3934,4.3906,4.3992,4.3952,4.3992,4.3993,4.401,4.4009,4.413,4.4021,4.4021,4.4021,4.4021,0,4.3764,4.3805,4.3797,4.3825,4.3871,4.3859,4.3906,4.391,4.3922,4.3952,4.3933,4.3961,4.3952,4.398,4.3976,4.4024,4.403,4.4032,4.403,4.4033,4.4033,4.4042,4.4037,4.4024,4.4023,4.4023,4.4022,0,4.3851,4.3847,4.3894,4.3904,4.3907,4.3941,4.395,4.3977,4.3977,4.4015,4.4023,4.4024,4.4057,4.4053,4.409,4.4088,4.4147,4.4139,4.4142,4.414,4.4181,4.4177,4.4312,4.4329,4.4209,4.421,4.4211,0,4.3906,4.3937,4.3951,4.3969,4.3977,4.4006,4.4023,4.4015,4.4034,4.4055,4.408,4.4111,4.4135,4.4189,4.4194,4.4223,4.4215,4.4261,4.4219,4.4222,4.4217,4.4215,4.4219,4.4269,4.427,4.4271,4.4272,0,4.4006,4.4003,4.4027,4.4053,4.4074,4.4093,4.4111,4.4127,4.4121,4.4144,4.4177,4.4196,4.4234,4.4266,4.4294,4.4303,4.4287,4.4285,4.4296,4.4299,4.43,4.4301,4.4164,4.4282,4.4281,4.428,4.428,4.4279,4.4079,4.4106,4.412,4.4149,4.4161,4.4179,4.4205,4.4209,4.4237,4.4266,4.426,4.4298,4.4316,4.4351,4.4363,4.4394,4.4378,4.4393,4.4397,4.4401,4.4406,4.4296,4.4399,4.4399,4.4399,4.4398,4.4398,0,4.4178,4.4186,4.4213,4.4238,4.4262,4.4245,4.4265,4.4286,4.4319,4.4336,4.4361,4.44,4.4432,4.444,4.4471,4.4494,4.4488,4.4502,4.45,4.4503,4.4419,4.4406,4.4507,4.4507,4.4507,4.4507,4.4507,4.4507,4.4232,4.4277,4.4276,4.4329,4.4337,4.4373,4.4386,4.4403,4.4417,4.4462,4.4488,4.4493,4.4507,4.4539,4.4568,4.457,4.4582,4.46,4.4599,4.452,4.4509,4.4498,4.4487,4.4603,4.4603,4.4681,4.4681,4.4682]}]]